This demonstration page uses our WeatherBlox Daily Observations layout. Learn more.

Left ArrowRight Arrow

Hourly Observations for March 27, 2022

Temp ( °F °C ) Dew Point ( °F °C ) Humidity (%) Winds ( mph kmh ) Pressure ( in mb ) Visibility ( mi km ) Precip ( " mm )
12:59 am 00:59 Clear 47 8.3 27 -2.8 46 46 WNW 15 24 29.78 1008 10 16 0.00 0.00
1:59 am 01:59 Clear 46 7.8 26 -3.3 46 46 WNW 16 26 29.78 1009 10 16 0.00 0.00
2:59 am 02:59 Clear 44 6.7 27 -2.8 51 51 W 14 22 29.79 1009 10 16 0.00 0.00
3:59 am 03:59 Clear 43 6.1 29 -1.7 58 58 W 12 19 29.80 1009 10 16 0.00 0.00
4:59 am 04:59 Clear 42 5.6 28 -2.2 58 58 W 10 17 29.80 1009 10 16 0.00 0.00
5:59 am 05:59 Clear 41 5 28 -2.2 60 60 WNW 10 17 29.81 1010 10 16 0.00 0.00
6:59 am 06:59 Mostly Sunny 41 5 28 -2.2 60 60 W 13 20 29.84 1010 10 16 0.00 0.00
7:59 am 07:59 Mostly Sunny 42 5.6 28 -2.2 58 58 W 13 20 29.85 1011 10 16 0.00 0.00
8:59 am 08:59 Mostly Sunny 44 6.7 28 -2.2 53 53 WNW 13 20 29.86 1011 10 16 0.00 0.00
9:59 am 09:59 Sunny 47 8.3 27 -2.8 46 46 W 16 26 29.86 1011 10 16 0.00 0.00
10:59 am 10:59 Mostly Sunny 48 8.9 25 -3.9 41 41 WNW 15 24 29.85 1011 10 16 0.00 0.00
11:59 am 11:59 Mostly Cloudy 49 9.4 25 -3.9 39 39 WNW 15 24 29.84 1011 10 16 0.00 0.00
12:59 pm 12:59 Mostly Cloudy 49 9.4 26 -3.3 41 41 WNW 13 20 29.83 1010 10 16 0.00 0.00
1:59 pm 13:59 Cloudy 51 10.6 24 -4.4 35 35 WNW 17 28 29.82 1010 10 16 0.00 0.00
2:59 pm 14:59 Mostly Cloudy 52 11.1 24 -4.4 34 34 WNW 20 31 29.80 1009 10 16 0.00 0.00
3:59 pm 15:59 Mostly Cloudy 54 12.2 22 -5.6 29 29 W 18 30 29.79 1009 10 16 0.00 0.00
4:59 pm 16:59 Mostly Cloudy 54 12.2 22 -5.6 29 29 W 20 31 29.79 1009 10 16 0.00 0.00
5:59 pm 17:59 Mostly Cloudy 53 11.7 21 -6.1 28 28 W 21 33 29.81 1010 10 16 0.00 0.00
6:59 pm 18:59 Partly Cloudy 52 11.1 22 -5.6 31 31 WNW 18 30 29.83 1010 10 16 0.00 0.00
7:59 pm 19:59 Partly Cloudy 50 10 21 -6.1 32 32 W 16 26 29.86 1011 10 16 0.00 0.00
8:59 pm 20:59 Partly Cloudy 50 10 22 -5.6 33 33 W 15 24 29.90 1013 10 16 0.00 0.00
9:15 pm 21:15 Partly Cloudy 48 8.9 28 -2.2 46 46 N 12 19 29.92 1013 10 16 0.00 0.00
9:59 pm 21:59 Mostly Clear 45 7.2 25 -3.9 46 46 NNW 18 30 29.95 1014 10 16 0.00 0.00
10:59 pm 22:59 Clear 44 6.7 22 -5.6 41 41 NNW 15 24 29.97 1015 10 16 0.00 0.00
11:59 pm 23:59 Clear 42 5.6 16 -8.9 35 35 NW 23 37 29.99 1016 10 16 0.00 0.00

Powered by AerisWeather